Regional Weather Roundup
Issued by NWS

Home | Current Version | Previous Version | Graphics & Text | Print | Product List | Glossary On
Versions: 1 2 3 4 5 6 7 8 9 10 11 12 13 14 15 16 17 18 19 20 21 22 23 24 25 26 27 28 29 30 31 32 33 34 35 36 37 38 39 40 41 42 43 44 45 46 47 48 49 50
000
ASUS43 KDTX 091410
RWRMI
MICHIGAN HOURLY REGIONAL WEATHER ROUNDUP
NATIONAL WEATHER SERVICE DETROIT/PONTIAC MI
ISSUED BY NATIONAL WEATHER SERVICE GRAND RAPIDS MI
900 AM EST FRI DEC 09 2016

NOTE: "FAIR" INDICATES FEW OR NO CLOUDS BELOW 12,000 FEET WITH NO
SIGNIFICANT WEATHER AND/OR OBSTRUCTION TO VISIBILITY.

MIZ047>049-052>055-059>063-066>070-074>076-081>083-091500-
SOUTHEAST LOWER MICHIGAN

CITY           SKY/WX    TMP DP  RH WIND       PRES   REMARKS
ADRIAN         LGT SNOW  24  22  91 W7        30.38R FOG     WCI  16
ALMA           CLEAR     26  19  73 W10       30.34R WCI  17
ANN ARBOR      CLOUDY    26  23  88 SW8       30.35R WCI  18
BAD AXE        CLOUDY    26  19  75 W3        30.30R
DETROIT CITY   PTCLDY    27  23  85 W5        30.35R WCI  22
DETROIT        CLOUDY    28  23  81 W9        30.36R WCI  19
FLINT          CLEAR     25  19  78 W10       30.33R WCI  15
GROSSE ILE     CLOUDY    27  23  86 W9        30.35R WCI  18
HILLSDALE      LGT SNOW  23  21  93 W6        30.35R WCI  16
HOWELL         CLOUDY    27  22  84 W9        30.33R WCI  17

CITY           SKY/WX    TMP DP  RH WIND       PRES   REMARKS
JACKSON        CLOUDY    25  22  88 W7        30.36R WCI  17
LANSING        CLOUDY    25  18  74 W8        30.36R WCI  16
MASON          CLOUDY    26  22  85 W6        30.35R WCI  19
MONROE         CLOUDY    26  24  91 W8        30.37R WCI  17
MT. CLEMENS    MOCLDY    28  21  72 W10       30.31R WCI  19
PONTIAC        MOCLDY    26  20  77 W10       30.31R WCI  16
PORT HOPE        N/A     27  17  66 NW12G21   30.28R WCI  17
PORT HURON     CLEAR     27  21  80 W7        30.32R WCI  19
TRI CITIES     PTCLDY    25  20  81 W9        30.33R WCI  15
YPSILANTI      CLOUDY    28  24  85 W10       30.36R WCI  19
$$
MIZ043>046-050>051-056>058-064>065-071>073-077>080-091500-
SOUTHWEST LOWER MICHIGAN

CITY           SKY/WX    TMP DP  RH WIND       PRES   REMARKS
BATTLE CREEK   LGT SNOW  27  25  92 W6        30.38R VSB 1   WCI  20
BENTON HARBOR  CLOUDY    30  17  58 W15G24    30.43R WCI  19
BIG RAPIDS     FLURRIES  24  19  79 W7        30.33R WCI  16
COLDWATER      LGT SNOW  24  22  93 SW9       30.38R WCI  14
HOLLAND        FLURRIES  29  19  66 W10G20    30.40R WCI  20
GRAND RAPIDS   LGT SNOW  27  19  72 NW13      30.38R WCI  16
KALAMAZOO      CLOUDY    27  22  81 W5        30.39R WCI  22
MARSHALL       LGT SNOW  25  24  95 SW6       30.37R VSB 3/4 WCI  18
MOUNT PLEASANT PTCLDY    25  19  76 W5        30.32R WCI  20
MUSKEGON       CLOUDY    29  14  53 NW13      30.39R WCI  19
STURGIS        LGT SNOW  23  21  93 W6        30.40R WCI  15
$$
MIZ016>042-091500-
NORTHERN LOWER MICHIGAN

CITY           SKY/WX    TMP DP  RH WIND       PRES   REMARKS
ALPENA         CLOUDY    20  14  77 NW5       30.30R WCI  13
BEAVER ISLAND  LGT SNOW  25  19  75 CALM      30.31R
BELLAIRE       CLOUDY    22  21  96 CALM      30.31S
CADILLAC       CLOUDY    22  18  83 W6        30.28R WCI  15
CHARLEVOIX     CLOUDY    27  15  59 NW10G24   30.33R WCI  18
GAYLORD        CLOUDY    20  15  81 W3        30.26R
HOUGHTON LAKE  LGT SNOW  22  20  92 CALM      30.29R FOG
MANISTEE       FLURRIES  26  19  74 W12       30.36R WCI  16
OSCODA         CLEAR     20  16  84 MISG      30.30R
PELLSTON       CLOUDY    22  14  71 N7        30.31R WCI  13
TRAVERSE CITY  MOCLDY    25  21  85 SW3       30.31R
LUDINGTON      CLOUDY    25  13  59 NW10G18   30.38R WCI  15
$$
MIZ007>008-015-091500-
EASTERN UPPER MICHIGAN

CITY           SKY/WX    TMP DP  RH WIND       PRES   REMARKS
KINROSS        LGT SNOW  17  14  88 CALM      30.30R FOG
MACKINAC ISLAN MOCLDY    20  15  81 NE5       30.30R WCI  14
NEWBERRY       LGT SNOW  19  18  95 CALM      30.30R
S. S. MARIE    CLOUDY    19   8  62 NE5       30.29R WCI  12
$$
MIZ004>006-011>014-085-091500-
CENTRAL UPPER MICHIGAN

CITY           SKY/WX    TMP DP  RH WIND       PRES   REMARKS
MANISTIQUE     LGT SNOW  18  18  97 NW7       30.32R WCI   9
ESCANABA       CLOUDY    18  13  80 NW7       30.37  WCI   9
MENOMINEE      CLEAR     18  10  71 NW6       30.41R WCI  10
SAWYER-GWINN   CLOUDY    16  12  86 NW8       30.31S WCI   5
$$
MIZ001>003-009>011-084-091500-
WESTERN UPPER MICHIGAN

CITY           SKY/WX    TMP DP  RH WIND       PRES   REMARKS
IRON MOUNTAIN  PTCLDY    16   8  71 NW15      30.34R WCI   1
HOUGHTON       LGT SNOW  19  13  77 NW15      30.34R VSB 3/4 WCI   5
COPPER HARBOR    N/A     23  18  81 NE16      30.36R WCI  10
IRONWOOD       LGT SNOW  15  10  80 W9        30.41R WCI   3
$$

ABBREVIATIONS USED IN REMARKS
   TC - TEMPERATURE IN CELSIUS
  WCI - WIND CHILL INDEX
   HX - HEAT INDEX
  VSB - VISIBILITY




USA.gov is the U.S. government's official web portal to all federal, state and local government web resources and services.